Wind_Speed
22 22 24 25 26 28 30 27 27 24 22 22 22 25 27 31 33 35 31 35 46 38
22 23 26 29 31 30 30 29 29 29 29 28 25 24 24 29 33 32 30 31 35 42
23 25 25 23 25 28 29 29 28 27 28 29 27 23 23 23 27 32 33 35 38 39
21 21 24 27 26 27 28 29 30 30 28 26 27 26 27 26 25 28 31 35 38 41
22 23 25 29 31 33 34 34 34 35 33 28 26 27 26 27 26 27 28 32 37 38
29 31 33 35 38 39 40 37 36 38 34 32 30 28 26 25 26 22 24 29 35 39
21 23 26 29 32 34 35 38 39 36 34 33 31 30 27 24 26 25 25 25 30 31
33 33 32 30 30 31 33 37 41 36 33 34 31 27 28 27 26 27 26 25 25 29
44 44 43 40 38 37 33 30 29 28 28 30 33 31 26 28 27 28 19 24 23 32
46 45 43 43 45 45 41 39 41 42 38 34 35 35 29 25 27 27 27 25 30 33
42 38 38 41 43 43 40 40 41 42 44 45 45 43 31 25 26 28 32 35 34 31
56 58 59 51 42 38 38 39 38 35 34 36 33 32 30 25 24 26 31 32 25 26
45 36 34 35 33 34 36 37 34 34 36 34 30 27 27 25 23 22 27 28 23 26
39 43 45 45 44 38 30 33 34 36 34 34 27 26 22 24 22 23 14 31 28 26
Wind_Direction
288 289 288 291 296 301 302 303 299 304 310 309 295 277 272 271 266 269 267 253 246 254
286 282 282 286 293 296 301 304 308 300 295 298 307 292 282 268 261 259 257 258 259 255
265 266 275 280 278 288 293 300 306 306 300 298 300 304 290 278 263 263 259 256 256 257
258 260 272 272 271 279 284 290 297 307 312 308 301 303 304 289 279 266 258 257 257 258
265 267 268 274 278 283 286 290 295 299 304 307 302 300 302 301 287 277 263 253 250 252
280 277 277 277 279 279 283 288 292 296 300 303 304 304 299 304 294 277 267 257 256 254
277 275 274 277 277 276 276 279 289 288 293 297 300 300 305 301 293 278 271 269 256 255
286 286 283 281 276 272 273 276 279 278 284 291 294 298 298 301 289 290 274 271 264 259
294 287 283 284 283 274 271 267 264 266 269 277 287 287 294 297 285 281 282 267 266 268
295 293 291 288 283 275 274 274 272 272 271 273 279 278 277 285 281 263 263 275 264 262
288 287 286 287 280 276 276 273 272 269 272 275 273 269 269 272 279 266 262 261 262 258
289 287 288 284 270 266 270 270 268 273 276 278 275 263 256 261 273 265 259 263 231 218
293 290 280 271 275 274 266 262 265 272 277 286 268 251 251 251 270 263 251 218 231 237
285 280 277 275 268 272 258 254 262 273 276 282 265 256 245 240 252 239 247 229 229 194
Height
1465 1464 1464 1464 1463 1462 1461 1461 1462 1460 1459 1459 1458 1456 1453 1453 1451 1454 1450 1453 1460 1461
1458 1459 1459 1459 1458 1457 1455 1455 1454 1454 1453 1451 1450 1449 1447 1446 1447 1447 1447 1449 1450 1450
1452 1452 1452 1452 1452 1452 1451 1449 1448 1447 1445 1443 1442 1441 1439 1438 1437 1436 1437 1438 1439 1440
1446 1446 1445 1444 1443 1443 1442 1442 1441 1440 1438 1436 1434 1433 1431 1430 1428 1427 1428 1428 1428 1429
1441 1440 1438 1436 1435 1434 1433 1433 1433 1432 1431 1430 1428 1426 1424 1422 1421 1419 1419 1419 1419 1420
1434 1432 1430 1428 1427 1426 1425 1424 1424 1423 1422 1422 1421 1419 1417 1415 1412 1411 1409 1409 1410 1411
1428 1427 1424 1422 1420 1418 1416 1414 1413 1413 1413 1413 1412 1412 1410 1408 1405 1403 1402 1400 1400 1403
1419 1417 1416 1414 1412 1409 1406 1406 1405 1403 1403 1403 1403 1403 1403 1401 1400 1397 1396 1396 1395 1397
1408 1407 1405 1403 1402 1400 1397 1397 1396 1395 1394 1394 1394 1396 1396 1394 1392 1391 1391 1390 1390 1392
1396 1393 1391 1389 1388 1387 1386 1386 1386 1385 1385 1385 1385 1388 1389 1388 1386 1385 1386 1384 1384 1384
1384 1381 1378 1376 1375 1373 1373 1372 1373 1373 1373 1373 1374 1378 1380 1380 1379 1377 1378 1378 1376 1374
1370 1365 1362 1359 1359 1359 1359 1360 1361 1360 1361 1361 1362 1365 1370 1371 1370 1368 1368 1368 1367 1368
1354 1349 1348 1347 1346 1347 1345 1347 1349 1349 1350 1351 1352 1355 1359 1361 1362 1361 1362 1362 1362 1367
1342 1338 1336 1335 1334 1335 1335 1335 1337 1339 1340 1341 1343 1346 1350 1353 1356 1357 1354 1356 1359 1362